Location: Chefe Valiua
(16.5342°S, 37.2214°E)
Time: 06:06:28
(UTC+00:00)

ARIANE 5 R/B - Pass Details

Date: 19 January 2021
Orbit: 261 x 32503 km, 5.0° (Epoch: 07 March)

Event Time Altitude Azimuth Distance (km) Brightness Sun altitude
Rises 16:19:03 0° 310° (NW) 2,325 4.9 -2.7°
Reaches altitude 10° 16:20:49 10° 332° (NNW) 1,896 4.1 -3.1°
Maximum altitude 16:23:58 20° 23° (NNE) 2,199 4.0 -3.8°
Drops below altitude 10° 16:32:15 10° 64° (ENE) 5,540 5.7 -5.6°
Enters shadow 16:35:51 - 69° (ENE) 7,029 6.2 -6.4°
